Hourly Data Report for June 28, 2018

OTTAWA INTL A
ONTARIO
Current Station Operator: NAVCAN

45°19'00.000" N
75°40'00.000" W
114.90 m
6106001
71628
YOW

Download Data

Hourly Data (June 2018)
Hourly Data Report for June 28, 2018
TIME
LST
Temp Definition
°C
Dew Point Definition
°C
Rel Hum Definition
%
Precip. Amount Definition
mm

Wind Dir Definition
10's deg

Wind Spd Definition
km/h
Visibility Definition
km
Stn Press Definition
kPa
Hmdx Definition


Wind Chill Definition


Weather Definition


00:00 17.7 17.3 98   11 9 3.2 99.52     Drizzle, Fog
01:00 17.8 17.4 98   10 8 2.4 99.48     Drizzle, Fog
02:00 17.8 17.4 98   15 4 4.0 99.44     Rain, Drizzle, Fog
03:00 17.8 17.4 98   11 7 6.4 99.40     Drizzle, Fog
04:00 17.8 17.4 98   12 7 12.9 99.40     Drizzle
05:00 17.8 17.4 97   12 5 11.3 99.39     LegendNANA
06:00 17.9 17.4 97   11 7 9.7 99.38     Fog
07:00 18.1 17.4 96   12 8 9.7 99.39     Fog
08:00 18.7 17.7 94   23 3 9.7 99.42     Fog
09:00 18.9 17.7 92   17 3 16.1 99.43     LegendNANA
10:00 19.4 17.8 90   36 1 16.1 99.47     Cloudy
11:00 19.6 18.1 91   26 5 16.1 99.47     Drizzle
12:00 19.5 18.6 94   25 7 16.1 99.48     Drizzle
13:00 21.0 18.7 87   23 7 24.1 99.47 28   Mostly Cloudy
14:00 22.8 19.0 79   26 17 24.1 99.47 30   LegendNANA
15:00 23.5 19.5 78   23 10 24.1 99.45 31   LegendNANA
16:00 24.9 18.6 68   27 18 24.1 99.42 31   Mainly Clear
17:00 24.9 17.9 65   24 14 24.1 99.41 31   LegendNANA
18:00 24.8 17.6 64   25 14 24.1 99.43 31   LegendNANA
19:00 23.8 17.6 68   25 8 24.1 99.48 30   Mainly Clear
20:00 21.9 17.4 75   18 4 24.1 99.54 27   LegendNANA
21:00 21.1 17.9 82   16 10 24.1 99.58 27   LegendNANA
22:00 20.5 18.8 90   16 6 24.1 99.61 27   Mainly Clear
23:00 19.6 18.7 95   17 9 24.1 99.61     LegendNANA

Notes on Data Quality.

Legend

  • E = Estimated
  • M = Missing
  • NA = Not Available*
  • [empty] = Indicates an unobserved value
Date modified: